TimeCDT,TemperatureF,Dew PointF,Humidity,Sea Level PressureIn,VisibilityMPH,Wind Direction,Wind SpeedMPH,Gust SpeedMPH,PrecipitationIn,Events,Conditions,WindDirDegrees,DateUTC
12:14 AM,42.8,37.4,81,30.00,10.0,NNW,12.7,19.6,N/A,,Overcast,340,2013-10-16 05:14:00
12:34 AM,42.8,37.4,81,30.00,10.0,NNW,11.5,19.6,N/A,,Overcast,330,2013-10-16 05:34:00
12:53 AM,41.0,35.6,81,30.00,10.0,NNW,10.4,20.7,N/A,,Overcast,330,2013-10-16 05:53:00
1:14 AM,41.0,35.6,81,30.00,10.0,NNW,10.4,-,N/A,,Overcast,330,2013-10-16 06:14:00
1:34 AM,41.0,33.8,76,30.01,10.0,NNW,10.4,16.1,N/A,,Overcast,330,2013-10-16 06:34:00
1:53 AM,41.0,35.6,81,30.01,10.0,NNW,9.2,-,N/A,,Overcast,330,2013-10-16 06:53:00
2:14 AM,41.0,35.6,81,30.01,10.0,NW,8.1,-,N/A,,Overcast,320,2013-10-16 07:14:00
2:34 AM,41.0,35.6,81,30.01,10.0,NW,8.1,-,N/A,,Overcast,320,2013-10-16 07:34:00
2:53 AM,39.2,35.6,87,30.01,10.0,WNW,11.5,-,N/A,,Mostly Cloudy,300,2013-10-16 07:53:00
3:13 AM,37.4,35.6,93,30.01,10.0,NW,11.5,-,N/A,,Mostly Cloudy,310,2013-10-16 08:13:00
3:34 AM,37.4,33.8,87,30.01,10.0,WNW,8.1,-,N/A,,Scattered Clouds,300,2013-10-16 08:34:00
3:54 AM,35.6,33.8,93,30.00,10.0,NW,6.9,-,N/A,,Clear,320,2013-10-16 08:54:00
4:13 AM,35.6,33.8,93,30.00,10.0,WNW,6.9,-,N/A,,Clear,300,2013-10-16 09:13:00
4:34 AM,35.6,32.0,87,29.99,10.0,NW,8.1,-,N/A,,Clear,320,2013-10-16 09:34:00
4:54 AM,35.6,32.0,87,29.99,10.0,WNW,6.9,-,N/A,,Clear,300,2013-10-16 09:54:00
5:13 AM,35.6,32.0,87,29.99,10.0,WNW,6.9,-,N/A,,Clear,300,2013-10-16 10:13:00
5:34 AM,35.6,32.0,87,30.00,10.0,WNW,5.8,-,N/A,,Clear,290,2013-10-16 10:34:00
5:54 AM,33.8,30.2,87,30.00,10.0,West,5.8,-,N/A,,Clear,270,2013-10-16 10:54:00
6:13 AM,33.8,30.2,87,30.00,10.0,West,5.8,-,N/A,,Clear,270,2013-10-16 11:13:00
6:34 AM,33.8,30.2,87,30.00,10.0,West,4.6,-,N/A,,Clear,280,2013-10-16 11:34:00
6:53 AM,32.0,30.2,93,30.00,10.0,West,4.6,-,N/A,,Clear,260,2013-10-16 11:53:00
7:14 AM,30.2,28.4,93,30.00,10.0,WSW,3.5,-,N/A,,Clear,240,2013-10-16 12:14:00
7:34 AM,32.0,28.4,87,30.00,10.0,WSW,3.5,-,N/A,,Clear,250,2013-10-16 12:34:00
7:53 AM,30.2,28.4,93,30.00,10.0,West,3.5,-,N/A,,Clear,270,2013-10-16 12:53:00
8:14 AM,32.0,28.4,87,30.00,10.0,WSW,3.5,-,N/A,,Clear,250,2013-10-16 13:14:00
8:34 AM,33.8,30.2,87,30.00,10.0,WSW,4.6,-,N/A,,Clear,250,2013-10-16 13:34:00
8:54 AM,33.8,30.2,87,30.00,10.0,Calm,Calm,-,N/A,,Clear,0,2013-10-16 13:54:00
9:13 AM,35.6,30.2,81,30.00,10.0,WSW,3.5,-,N/A,,Clear,250,2013-10-16 14:13:00
9:34 AM,35.6,32.0,87,29.99,10.0,WSW,3.5,-,N/A,,Clear,250,2013-10-16 14:34:00
9:54 AM,37.4,33.8,87,29.99,10.0,WSW,5.8,-,N/A,,Clear,240,2013-10-16 14:54:00
10:13 AM,41.0,35.6,81,29.99,10.0,WSW,5.8,-,N/A,,Clear,240,2013-10-16 15:13:00
10:34 AM,42.8,35.6,76,29.99,10.0,WSW,4.6,-,N/A,,Clear,250,2013-10-16 15:34:00
10:54 AM,44.6,35.6,71,29.99,10.0,SSW,6.9,-,N/A,,Clear,210,2013-10-16 15:54:00
11:13 AM,46.4,37.4,71,29.98,10.0,WSW,5.8,-,N/A,,Clear,250,2013-10-16 16:13:00
11:34 AM,48.2,37.4,66,29.98,10.0,SW,6.9,-,N/A,,Clear,230,2013-10-16 16:34:00
11:54 AM,48.2,37.4,66,29.98,10.0,WSW,9.2,-,N/A,,Clear,240,2013-10-16 16:54:00
12:14 PM,51.8,37.4,58,29.97,10.0,SSW,4.6,-,N/A,,Clear,210,2013-10-16 17:14:00
12:34 PM,51.8,37.4,58,29.97,10.0,WSW,8.1,-,N/A,,Clear,240,2013-10-16 17:34:00
12:53 PM,53.6,37.4,54,29.95,10.0,WSW,3.5,-,N/A,,Clear,240,2013-10-16 17:53:00
1:14 PM,55.4,35.6,47,29.95,10.0,West,8.1,-,N/A,,Clear,270,2013-10-16 18:14:00
1:34 PM,55.4,33.8,44,29.94,10.0,West,9.2,-,N/A,,Clear,270,2013-10-16 18:34:00
1:53 PM,55.4,32.0,41,29.93,10.0,WSW,8.1,-,N/A,,Clear,250,2013-10-16 18:53:00
2:14 PM,55.4,30.2,38,29.93,10.0,West,8.1,-,N/A,,Clear,270,2013-10-16 19:14:00
2:34 PM,57.2,30.2,36,29.91,10.0,West,8.1,-,N/A,,Clear,270,2013-10-16 19:34:00
2:54 PM,57.2,30.2,36,29.91,10.0,WNW,9.2,-,N/A,,Clear,290,2013-10-16 19:54:00
3:14 PM,57.2,28.4,33,29.91,10.0,WNW,6.9,-,N/A,,Clear,300,2013-10-16 20:14:00
3:34 PM,57.2,28.4,33,29.90,10.0,West,8.1,-,N/A,,Clear,280,2013-10-16 20:34:00
3:54 PM,57.2,28.4,33,29.90,10.0,WNW,9.2,-,N/A,,Clear,290,2013-10-16 20:54:00
4:14 PM,57.2,28.4,33,29.90,10.0,West,10.4,-,N/A,,Clear,280,2013-10-16 21:14:00
4:33 PM,57.2,30.2,36,29.89,10.0,West,9.2,-,N/A,,Clear,270,2013-10-16 21:33:00
4:54 PM,55.4,30.2,38,29.89,10.0,West,11.5,-,N/A,,Clear,270,2013-10-16 21:54:00
5:14 PM,55.4,30.2,38,29.89,10.0,West,9.2,-,N/A,,Clear,270,2013-10-16 22:14:00
5:34 PM,55.4,32.0,41,29.89,10.0,West,9.2,-,N/A,,Clear,270,2013-10-16 22:34:00
5:54 PM,55.4,33.8,44,29.89,10.0,West,4.6,-,N/A,,Clear,270,2013-10-16 22:54:00
6:13 PM,53.6,33.8,47,29.89,10.0,WSW,4.6,-,N/A,,Clear,250,2013-10-16 23:13:00
6:34 PM,51.8,33.8,50,29.89,10.0,WSW,3.5,-,N/A,,Clear,250,2013-10-16 23:34:00
6:54 PM,50.0,33.8,54,29.88,10.0,Calm,Calm,-,N/A,,Clear,0,2013-10-16 23:54:00
7:13 PM,46.4,35.6,66,29.88,10.0,Calm,Calm,-,N/A,,Clear,0,2013-10-17 00:13:00
7:34 PM,44.6,33.8,66,29.89,10.0,Calm,Calm,-,N/A,,Clear,0,2013-10-17 00:34:00
7:54 PM,44.6,35.6,71,29.88,10.0,South,3.5,-,N/A,,Clear,190,2013-10-17 00:54:00
8:13 PM,44.6,35.6,71,29.88,10.0,Calm,Calm,-,N/A,,Clear,0,2013-10-17 01:13:00
8:34 PM,44.6,33.8,66,29.88,10.0,South,3.5,-,N/A,,Clear,190,2013-10-17 01:34:00
8:54 PM,44.6,33.8,66,29.87,10.0,South,3.5,-,N/A,,Clear,190,2013-10-17 01:54:00
9:13 PM,44.6,33.8,66,29.87,10.0,South,3.5,-,N/A,,Clear,190,2013-10-17 02:13:00
9:34 PM,42.8,33.8,70,29.86,10.0,SSW,3.5,-,N/A,,Clear,210,2013-10-17 02:34:00
9:54 PM,42.8,33.8,70,29.86,10.0,SW,3.5,-,N/A,,Clear,220,2013-10-17 02:54:00
10:13 PM,42.8,33.8,70,29.86,10.0,SW,4.6,-,N/A,,Clear,220,2013-10-17 03:13:00
10:34 PM,41.0,33.8,76,29.86,10.0,SSW,3.5,-,N/A,,Clear,210,2013-10-17 03:34:00
10:54 PM,41.0,33.8,76,29.86,10.0,SW,3.5,-,N/A,,Clear,230,2013-10-17 03:54:00
11:13 PM,39.2,33.8,81,29.86,10.0,Calm,Calm,-,N/A,,Clear,0,2013-10-17 04:13:00
11:34 PM,39.2,33.8,81,29.85,10.0,SSW,3.5,-,N/A,,Clear,200,2013-10-17 04:34:00
11:53 PM,39.2,33.8,81,29.85,10.0,Calm,Calm,-,N/A,,Clear,0,2013-10-17 04:53:00